Torna al catalogo

COSMOS 1217 DEB

LostHEO
NORAD 41117·DEBRIS·🇷🇺 Russia

Lanciato Oct 24, 1980 da Plesetsk Cosmodrome

Loading…

Prossimi Passaggi (prossime 24 ore)

TLE

ObsoletoSource: Space-Track

Epoca: Jan 22, 2025, 06:43 UTC

1 41117U 80085N   25022.28035137  .00000355  00000-0  00000+0 0  9997
2 41117  68.0313  36.6451 6609282 312.9702   7.8472  1.99439097 81276

Traccia COSMOS 1217 DEB in tempo reale con AllMySat

Download on the App Store